Regional Weather Roundup
Issued by NWS Newport/Morehead, NC

Current Version | Previous Version | Graphics & Text | Print | Product List | Glossary On
Versions: 1 2 3 4 5 6 7 8 9 10 11 12 13 14 15 16 17 18 19 20 21 22 23 24 25 26 27 28 29 30 31 32 33 34 35 36 37 38 39 40 41 42 43 44 45 46 47 48 49 50
000 ASUS42 KMHX 180913 RWRMHX WEATHER ROUNDUP FOR EASTERN NORTH CAROLINA NATIONAL WEATHER SERVICE NEWPORT/MOREHEAD CITY NC 400 AM EST SAT NOV 18 2017 NOTE: "FAIR" INDICATES FEW OR NO CLOUDS BELOW 12,000 FEET WITH NO SIGNIFICANT WEATHER AND/OR OBSTRUCTIONS TO VISIBILITY NCZ015>017-031-032-045>047-102-103-181000- NORTH COAST CITY SKY/WX TMP DP RH WIND PRES REMARKS EDENTON PTCLDY 41 37 85 CALM 30.11F ELIZABETH CITY CLOUDY 36 36 100 S6 30.10F KITTY HAWK SUNNY 43 37 80 CALM 30.10F MANTEO CLEAR 46 38 75 W7 30.11F $$ NCZ045>047-081-094-103-104-181000- CENTRAL COAST CITY SKY/WX TMP DP RH WIND PRES REMARKS FRISCO CLEAR 41 41 100 W5 30.12F $$ NCZ095-097-098-100-101-181000- SOUTHERN COAST CITY SKY/WX TMP DP RH WIND PRES REMARKS BEAUFORT CLEAR 38 37 97 NE3 30.11F CEDAR ISLAND NOT AVBL JACKSONVILLE NOT AVBL PINEY ISLAND NOT AVBL WILMINGTON CLEAR 37 36 96 CALM 30.12S $$ NCZ011>013-027>030-043-044-078>080-089-090>093-098-181000- COASTAL PLAIN CITY SKY/WX TMP DP RH WIND PRES REMARKS AHOSKIE CLEAR 32 31 98 CALM 30.10F CLINTON CLOUDY 32 32 100 CALM 30.12S ELIZABETHTOWN NOT AVBL GOLDSBORO CLEAR 33 30 87 CALM 30.09F GREENVILLE CLEAR 32 32 100 CALM 30.12F HAVELOCK NOT AVBL KENANSVILLE CLEAR 28 28 100 CALM 30.12F FOG KINSTON CLEAR 31 30 98 CALM 30.12S NEW BERN PTCLDY 33 33 100 CALM 30.12F RICHLANDS CLEAR 31 29 92 CALM 30.12F ROCKY MOUNT CLEAR 30 30 100 CALM 30.11S WASHINGTON CLEAR 33 32 97 CALM 30.11F WHITEVILLE CLEAR 34 33 96 CALM 30.10F $$ AMZ130-135-150-152-154-156-158-170-250-252-270-ANZ085-086-088-633-658-670-181000- MARINE OBSERVATIONS STATION/POSITION TIME TEMP WIND PRES WAVE SWELL AIR SEA DIR/SP/G HT/PER HT/PER (UTC) (F) (DEG/KT/KT) (MB) (FT/S) (FT/S) CHESAPEAKE LIGHT NOT AVBL 64 E VA BEACH 0850 53 60 220/ 10/ 12 1019.2 3/11 3/11 DUCK NOT AVBL 2 E DUCK 0900 58 N/A 3/12 2/12 OREGON INLET NOT AVBL 13E OREGON INLT 0848 60 N/A 4/11 2/11 HATTERAS CG NOT AVBL DIAMOND BUOY 0850 55 64 330/ 6/ 10 1020.0 3/10 3/10 CAPE LOOKOUT 0900 50 10/ 6/ 7 1019.5 BEAUFORT LAB NOT AVBL 30 SE NEW RVR IN 0808 59 70 60/ 6/ 8 1019.7 30 SE NEW RVR IN 0900 70 N/A 3/13 2/13 27 SE WRIGHTSVLE 0808 60 67 20/ 4/ 8 1019.4 5 SE WRIGHTSVLE 0808 56 64 330/ 6/ 10 1019.8 225 S CAPE HAT 0850 68 77 80/ 6/ 10 1018.0 7/ 9 7/ 9 41 SE CHARLESTON 0850 67 76 70/ 4/ 6 1017.8 3/ 6 3/ 6 $$

USA.gov is the U.S. government's official web portal to all federal, state and local government web resources and services.